Regional Weather Roundup
Issued by NWS

Home | Current Version | Previous Version | Text Only | Print | Product List | Glossary Off
Versions: 1 2 3 4 5 6 7 8 9 10 11 12 13 14 15 16 17 18 19 20 21 22 23 24 25 26 27 28 29 30 31 32 33 34 35 36 37 38 39 40 41 42 43 44 45 46 47 48 49 50

000
ASUS43 KMPX 301301
RWRMN
WEATHER ROUNDUP FOR MINNESOTA
NATIONAL WEATHER SERVICE TWIN CITIES/CHANHASSEN MN
800 AM CDT SUN APR 30 2017


NOTE: "FAIR" INDICATES FEW OR NO CLOUDS BELOW 12,000 FEET WITH NO
SIGNIFICANT WEATHER AND/OR OBSTRUCTIONS TO VISIBILITY. N/A MEANS
CURRENT SKY AND/OR WEATHER CONDITIONS ARE NOT AVAILABLE.

MNZ060>063-068>070-301400-
   Twin Cities Metro

CITY           SKY/WX    TMP DP  RH WIND       PRES   REMARKS
TWIN CITIES    CLOUDY    43  23  45 NE9       30.02F
ST PAUL        CLOUDY    43  24  47 NE10      30.03F
CRYSTAL        CLOUDY    43  21  41 E9        30.02F
BLAINE         CLOUDY    45  23  42 NE10      30.02F
LAKEVILLE      RAIN      39  30  70 NE8       30.02R
EDEN PRAIRIE   CLOUDY    44  23  43 NE9       30.02R
SOUTH ST PAUL  CLOUDY    43  23  45 NE5       30.01F
LAKE ELMO      CLOUDY    43  27  52 NE13      30.02F
$$
MNZ001>005-007-008-013>017-022>024-027-028-301400-
   Northwest Minnesota

CITY           SKY/WX    TMP DP  RH WIND       PRES   REMARKS
BEMIDJI        CLOUDY    40  22  47 E8        30.15F
HALLOCK        CLOUDY    39  30  70 S8        30.15F
ROSEAU         CLOUDY    43  30  61 S7        30.18F
WARROAD        CLOUDY    39  30  70 S6        30.19F
THIEF RVR FALL PTSUNNY   42  26  53 E6        30.18F
CROOKSTON      PTSUNNY   43  27  52 CALM      30.17F
FOSSTON        SUNNY     41  27  56 NE5       30.15F
DETROIT LAKES  MOSUNNY   41  21  45 E7        30.12F
MOORHEAD       SUNNY     43  27  52 E6        30.13F
PARK RAPIDS    CLOUDY    41  15  35 E10       30.10F
MAHNOMEN       FAIR      37  27  65 NE8       30.12F
$$
MNZ006-009>011-018-025>026-301400-
   North Central Minnesota

CITY           SKY/WX    TMP DP  RH WIND       PRES   REMARKS
BAUDETTE       PTSUNNY   38  23  55 SE6       30.20F
FLAG ISLAND    CLOUDY    37  30  75 SE10      30.19F
INTL FALLS     CLOUDY    39  23  52 E3        30.22F
WASKISH        MOSUNNY   36  27  69 CALM      30.20F
BIG FORK       CLOUDY    37  19  48 NE3       30.19F
LONGVILLE      CLOUDY    37  18  44 E5        30.13F
GRAND RAPIDS   MOSUNNY   37  16  42 VRB5      30.17F
CRANE LAKE     CLOUDY    30  27  86 CALM      30.24F
ORR            CLOUDY    37  21  52 CALM      30.18F
COOK           CLOUDY    39  21  48 E6        30.20S
WALKER         FAIR      40  19  43 E9        30.14F
$$
MNZ012-019>021-037-301400-
   Northeast Minnesota

CITY           SKY/WX    TMP DP  RH WIND       PRES   REMARKS
DULUTH         CLOUDY    39  17  41 E14       30.13F
ELY            PTSUNNY   34  21  60 NE3       30.19F
HIBBING        MOSUNNY   36  16  44 E8        30.17F
EVELETH        MOSUNNY   37   8  29 NE5       30.18F
DULUTH HARBOR  CLOUDY    39  32  75 NE16      30.16F
TWO HARBORS    CLOUDY    45  23  42 E12       30.14F
SILVER BAY     CLOUDY    43  19  39 NE9G21    30.16F
GRAND MARAIS     N/A     44  22  41 NE13      30.21F
G MARAIS ARPRT CLOUDY    37  18  44 NE9       30.20F
$$
MNZ029>031-032-039>041-046>048-054>057-064-301400-
   West Central Minnesota

CITY           SKY/WX    TMP DP  RH WIND       PRES   REMARKS
FERGUS FALLS   MOSUNNY   39  25  56 E9        30.09F
WHEATON        PTSUNNY   39  27  60 NE6       30.11S
MORRIS         CLOUDY    41  27  56 N7        30.07R
ALEXANDRIA     PTSUNNY   39  23  52 NE10      30.07F
ELBOW LAKE     FAIR      40  26  59 E9        30.09R
WADENA         CLOUDY    37  19  48 NE10      30.08F
GLENWOOD       PTSUNNY   39  21  48 NE13      30.07R
APPLETON       PTSUNNY   43  27  52 NE8       30.06R
BENSON         CLOUDY    43  19  39 E6        30.08R
ORTONVILLE     PTSUNNY   39  27  60 NE13      30.08R
MADISON        CLOUDY    43  30  61 NE10      30.05F
WILLMAR        FAIR      43  27  52 NE10      30.07R
$$
MNZ033>034-036-042>043-049>051-058-059-301400-
   Central Minnesota

CITY           SKY/WX    TMP DP  RH WIND       PRES   REMARKS
ST CLOUD       CLOUDY    39  22  50 NE9G17    30.06F
SAUK CENTRE    FAIR      39  23  51 NE7       30.07R
PAYNESVILLE    CLOUDY    40  23  49 NE6       30.06R
AITKIN         CLOUDY    39  16  38 NE8       30.09F
PINE RIVER     CLOUDY    37  19  48 NE9       30.14F
BRAINERD       CLOUDY    37  19  48 NE15      30.08F
STAPLES        CLOUDY    37  18  44 NE7       30.08F
LONG PRAIRIE   FAIR      37  21  52 N8        30.07S
LITTLE FALLS   CLOUDY    37  21  52 NE6       30.06F
LITCHFIELD     CLOUDY    41  27  56 NE8       30.05R
BUFFALO        CLOUDY    41  23  50 NE10      30.05S
MAPLE LAKE     CLOUDY    41  25  51 NE9       30.05S
HUTCHINSON     CLOUDY    42  28  57 NE10      30.04F
$$
MNZ037-044-045-052-053-301400-
   East Central Minnesota

CITY           SKY/WX    TMP DP  RH WIND       PRES   REMARKS
PRINCETON      CLOUDY    39  23  52 NE8       30.05F
MORA           PTSUNNY   37  23  56 NE7       30.08F
CAMBRIDGE      CLOUDY    41  25  52 NE9       30.03F
RUSH CITY      CLOUDY    39  23  53 NE10      30.07F
MOOSE LAKE     CLOUDY    37  23  56 NE8       30.10F
HINCKLEY       CLOUDY    39  27  60 NE6       30.08F
CLOQUET        CLOUDY    39  12  33 E12G21    30.12F
MCGREGOR       CLOUDY    37  21  52 NE8       30.13F
$$
MNZ071>073-080-081-089-090-097-098-301400-
   Southwest Minnesota

CITY           SKY/WX    TMP DP  RH WIND       PRES   REMARKS
MONTEVIDEO     CLOUDY    41  27  56 E9        30.05S
GRANITE FALLS  CLOUDY    42  30  63 N12       30.04F
CANBY          CLOUDY    41  30  66 CALM      30.05F
MARSHALL       CLOUDY    41  28  60 NE14      30.00F
REDWOOD FALLS  CLOUDY    42  26  53 NE8       30.01F
OLIVIA         CLOUDY    41  28  60 NE8       30.02F
PIPESTONE      MIX PCPN  41  25  52 E10G16    29.96S
WINDOM         RAIN      36  34  93 NE13      29.96F
WORTHINGTON    RAIN      35  33  92 NE18      29.94F WCI  24
JACKSON        LGT RAIN  36  34  93 NE15G24   29.93F
TRACY          CLOUDY    42  31  65 E10       29.99F
SLAYTON        LGT RAIN  36  32  87 E16       29.98F
$$
MNZ065>067-074>077-082>085-091>093-301400-
   South Central Minnesota

CITY           SKY/WX    TMP DP  RH WIND       PRES   REMARKS
MANKATO        LGT RAIN  40  33  76 NE16      29.98F
NEW ULM        LGT RAIN  39  30  70 NE9G20    30.00F
ST JAMES       LGT RAIN  37  34  87 N12       29.98F
FAIRMONT       LGT RAIN  39  36  89 NE15      29.94F
GLENCOE        CLOUDY    43  30  61 NE3       30.03S
FARIBAULT      RAIN      39  32  75 N9        29.99F
OWATONNA       LGT RAIN  39  34  81 NE12G18   29.97F
WASECA         RAIN      37  36  93 NE15G21   29.97F
ALBERT LEA     LGT RAIN  39  28  65 NE15G22   29.92F
$$
MNZ078>079-086>088-094>096-301400-
   Southeast Minnesota

CITY           SKY/WX    TMP DP  RH WIND       PRES   REMARKS
ROCHESTER      CLOUDY    41  27  57 NE21G29   29.94F
RED WING       CLOUDY    45  21  39 E10       29.97F
STANTON        DRIZZLE   43  28  56 NE10      29.98F
DODGE CENTER   LGT RAIN  39  28  65 NE10G17   29.94F
WINONA         CLOUDY    43  30  61 E13G20    29.97F
AUSTIN         LGT RAIN  39  28  65 NE13G18   29.92R
PRESTON        CLOUDY    40  28  63 NE9G20    29.93F
$$
ABBREVIATIONS USED IN REMARKS
   TC - TEMPERATURES IN CELSIUS
  WCI - WIND CHILL INDEX
   HX - HEAT INDEX
  VSB - VISIBILITY
$$




USA.gov is the U.S. government's official web portal to all federal, state and local government web resources and services.